[[{"header":{"parameterUnit":"m.s-1","parameterCategory":2,"la1":30.2992,"la2":30.254,"lo1":-89.0895,"lo2":-89.0443,"dy":0.0025,"dx":0.0025,"nx":19,"ny":19,"refTime":"2026-05-19T09:00:00:Z","depth":"0","parameterNumber":2,"parameterNumberName":"U-component_of_CURRENTS"},"data":[0,0,0,-0.3877,-0.388,-0.4008,-0.4008,-0.3961,-0.396,0,0,0,0,0,0,0,0,0,0,0,-0.3813,-0.3814,-0.3876,-0.388,-0.4008,-0.4008,-0.3961,-0.396,0,0,0,0,0,0,0,0,0,0,0,-0.3813,-0.3814,-0.3815,-0.3881,-0.4007,-0.4008,-0.3961,-0.3914,0,0,0,0,0,0,0,0,0,0,-0.3815,-0.3776,-0.3814,-0.3815,-0.3881,-0.4007,-0.4008,-0.3914,-0.3917,-0.3847,0,-0.3869,0,-0.3922,-0.3953,-0.3953,0,0,0,-0.3868,-0.3774,-0.3829,-0.3815,-0.3883,-0.4007,-0.3946,-0.3917,-0.392,-0.3849,-0.3869,-0.387,-0.3921,-0.3952,-0.3952,-0.3849,-0.3849,0,0,-0.3861,-0.3812,-0.3827,-0.3831,-0.3915,-0.3943,-0.3951,-0.3921,-0.3905,-0.3869,-0.387,-0.3921,-0.3952,-0.3951,-0.3849,-0.3849,0,0,0,-0.3849,-0.3806,-0.3866,-0.383,-0.3876,-0.3947,-0.3956,-0.3907,-0.3933,-0.387,-0.392,-0.3951,-0.395,-0.385,-0.3849,-0.3886,0,0,0,-0.3844,-0.3802,-0.3862,-0.3831,-0.3878,-0.3919,-0.3941,-0.3935,-0.3935,-0.392,-0.3951,-0.3949,-0.385,-0.3849,-0.3886,-0.389,0,0,0,-0.3808,-0.3797,-0.3818,-0.3829,-0.3896,-0.3922,-0.3947,-0.3937,-0.3964,-0.3953,-0.3949,-0.385,-0.385,-0.3885,-0.389,-0.3873,0,0,0,-0.3746,-0.3746,-0.3816,-0.3824,-0.3895,-0.3937,-0.3948,-0.3954,-0.3942,-0.3951,-0.385,-0.3849,-0.3885,-0.389,-0.3873,-0.3618,-0.3596,0,0,-0.371,-0.374,-0.3747,-0.3814,-0.3853,-0.3919,-0.3933,-0.3922,-0.3902,-0.3843,-0.3843,-0.3886,-0.389,-0.3873,-0.3568,-0.3548,0,0,0,-0.3713,-0.3716,-0.3737,-0.3783,-0.3841,-0.3898,-0.3914,-0.3919,-0.39,-0.3898,-0.3857,-0.3858,-0.3847,-0.3692,-0.3676,-0.3587,-0.3845,-0.3845,-0.3845,-0.356,-0.364,-0.3651,-0.3746,-0.3783,-0.3863,-0.3893,-0.3896,-0.3874,-0.3871,-0.3868,-0.3851,-0.3685,-0.367,-0.3582,-0.385,-0.385,-0.385,-0.385,-0.3486,-0.3484,-0.36,-0.364,-0.3736,-0.3758,-0.3854,-0.3877,-0.3882,-0.3875,-0.3863,-0.3712,-0.3654,-0.3567,-0.3852,-0.3852,-0.3852,-0.3851,-0.3851,-0.3358,-0.337,-0.3431,-0.3511,-0.3587,-0.3702,-0.3749,-0.384,-0.3879,-0.3893,-0.3685,-0.3681,-0.362,-0.3874,-0.3874,-0.3873,-0.3873,-0.3873,-0.3873,-0.3178,-0.3252,-0.3251,-0.3378,-0.3414,-0.3517,-0.3681,-0.3704,-0.3691,-0.3681,-0.3678,-0.3566,-0.3857,-0.3874,-0.3873,-0.3873,-0.3873,-0.3873,-0.3873,-0.2966,-0.3029,-0.3019,-0.3051,-0.3172,-0.318,-0.3408,-0.3396,-0.3451,-0.3378,-0.3297,-0.3556,-0.3512,-0.352,-0.3527,-0.3436,-0.3436,-0.3436,-0.3436,-0.2785,-0.2837,-0.2777,-0.2793,-0.2863,-0.3001,-0.289,-0.2943,-0.2988,-0.2951,-0.3075,-0.3006,-0.3028,-0.2956,-0.2977,-0.2973,-0.2744,-0.2744,-0.2743,-0.2606,-0.2642,-0.253,-0.2619,-0.2701,-0.2746,-0.2558,-0.2479,-0.2585,-0.2721,-0.3011,-0.304,-0.2954,-0.2995,-0.2896,-0.2932,-0.2932,0,0]},{"header":{"parameterUnit":"m.s-1","parameterCategory":2,"la1":30.2992,"la2":30.254,"lo1":-89.0895,"lo2":-89.0443,"dy":0.0025,"dx":0.0025,"nx":19,"ny":19,"refTime":"2026-05-19T09:00:00:Z","depth":"0","parameterNumber":3,"parameterNumberName":"V-component_of_CURRENTS"},"data":[0,0,0,-0.0497,-0.0494,-0.033,-0.0329,-0.0055,-0.0052,0,0,0,0,0,0,0,0,0,0,0,-0.0559,-0.0559,-0.0497,-0.0494,-0.0331,-0.0329,-0.0055,-0.0052,0,0,0,0,0,0,0,0,0,0,0,-0.056,-0.0559,-0.0559,-0.0493,-0.0331,-0.0329,-0.0056,-0.0188,0,0,0,0,0,0,0,0,0,0,-0.0352,-0.0437,-0.0559,-0.0559,-0.0493,-0.0331,-0.0329,-0.0195,-0.018,-0.0119,0,-0.0119,0,-0.0088,-0.0035,-0.0034,0,0,0,-0.0464,-0.045,-0.0404,-0.0559,-0.0492,-0.0331,-0.0396,-0.0187,-0.017,-0.0099,-0.0115,-0.0105,-0.0083,-0.0034,-0.0032,0.0126,0.0126,0,0,-0.0473,-0.052,-0.0416,-0.0394,-0.0479,-0.0401,-0.0391,-0.0177,-0.0172,-0.0114,-0.0098,-0.0078,-0.0032,-0.003,0.0126,0.0126,0,0,0,-0.0519,-0.0527,-0.0486,-0.0405,-0.0385,-0.0397,-0.0385,-0.0181,-0.0168,-0.0095,-0.0075,-0.003,-0.0027,0.0126,0.0126,-0.0021,0,0,0,-0.0523,-0.0555,-0.0491,-0.0515,-0.0391,-0.0292,-0.0395,-0.0183,-0.0158,-0.0077,-0.003,-0.0025,0.0126,0.0126,-0.0017,-0.0077,0,0,0,-0.0561,-0.0559,-0.055,-0.0519,-0.046,-0.0295,-0.0268,-0.0177,-0.0146,-0.0034,-0.0024,0.0126,0.0126,-0.0013,-0.007,0.0007,0,0,0,-0.0599,-0.063,-0.0551,-0.0573,-0.0463,-0.0397,-0.0269,-0.0195,-0.0114,-0.0029,0.0126,0.0126,-0.0012,-0.0065,0.0009,0.0124,0.0122,0,0,-0.0665,-0.0639,-0.0652,-0.0578,-0.0565,-0.0415,-0.0369,-0.0208,-0.0094,0.0067,0.0071,-0.0018,-0.0069,0.0008,0.0098,0.0098,0,0,0,-0.069,-0.0705,-0.0686,-0.0656,-0.0571,-0.0481,-0.0323,-0.0234,-0.0096,-0.0051,0.0014,-0.0012,0.0041,0.0116,0.0115,0.0417,0.0124,0.0124,0.0124,-0.083,-0.0782,-0.0805,-0.0735,-0.0679,-0.0513,-0.0422,-0.0264,-0.0159,-0.0124,-0.0109,-0.0122,-0.0048,-0.0046,0.0261,-0.0082,-0.0083,-0.0083,-0.0084,-0.0948,-0.0964,-0.0894,-0.09,-0.0783,-0.0717,-0.0499,-0.0403,-0.0238,-0.0191,-0.013,-0.0017,-0.0055,0.0273,-0.0093,-0.0091,-0.009,-0.0089,-0.0088,-0.1046,-0.1049,-0.1043,-0.1035,-0.0983,-0.0835,-0.0724,-0.0567,-0.0363,-0.0328,-0.012,-0.0116,0.0164,-0.0268,-0.0268,-0.0268,-0.0268,-0.0268,-0.0268,-0.1147,-0.1139,-0.1185,-0.1168,-0.1159,-0.1084,-0.0857,-0.0704,-0.0417,-0.0246,-0.0242,0.021,-0.0175,-0.0179,-0.0267,-0.0267,-0.0267,-0.0268,-0.0268,-0.1252,-0.125,-0.1323,-0.134,-0.1319,-0.1235,-0.1034,-0.0633,-0.0433,-0.0244,0.0287,-0.0139,-0.0049,-0.0046,-0.0042,-0.009,-0.009,-0.009,-0.009,-0.1321,-0.1328,-0.1417,-0.1456,-0.1456,-0.1298,-0.0994,-0.056,0.0091,0.0444,0.0527,0.0601,0.058,0.0712,0.0699,0.0721,0.0868,0.0869,0.0871,-0.1379,-0.1401,-0.1467,-0.1503,-0.1509,-0.1326,-0.0972,-0.0383,0.0543,0.0938,0.0925,0.0884,0.1016,0.096,0.1183,0.114,0.118,0,0]}],[{"header":{"parameterUnit":"m.s-1","parameterCategory":2,"la1":30.2992,"la2":30.254,"lo1":-89.0895,"lo2":-89.0443,"dy":0.0025,"dx":0.0025,"nx":19,"ny":19,"refTime":"2026-05-19T09:00:00:Z","depth":"2","parameterNumber":2,"parameterNumberName":"U-component_of_CURRENTS"},"data":[0,0,0,-0.3403,-0.3405,-0.3516,-0.3516,-0.3516,-0.3516,0,0,0,0,0,0,0,0,0,0,0,-0.3352,-0.3353,-0.3403,-0.3406,-0.3516,-0.3516,-0.3516,-0.3516,0,0,0,0,0,0,0,0,0,0,0,-0.3352,-0.3353,-0.3354,-0.3406,-0.3516,-0.3517,-0.3516,-0.3466,0,0,0,0,0,0,0,0,0,0,-0.3375,-0.3343,-0.3353,-0.3354,-0.3407,-0.3516,-0.3517,-0.3465,-0.3469,-0.3429,0,-0.3451,0,-0.3491,-0.3514,-0.3514,0,0,0,-0.3395,-0.334,-0.3383,-0.3354,-0.3408,-0.3516,-0.3463,-0.3468,-0.3472,-0.3434,-0.3452,-0.3453,-0.3491,-0.3513,-0.3513,-0.3492,-0.3492,0,0,-0.3389,-0.3355,-0.3381,-0.3386,-0.344,-0.346,-0.3467,-0.3472,-0.3466,-0.3452,-0.3454,-0.3491,-0.3513,-0.3513,-0.3492,-0.3492,0,0,0,-0.3379,-0.3351,-0.3397,-0.3384,-0.342,-0.3463,-0.3471,-0.3466,-0.3486,-0.3455,-0.3491,-0.3513,-0.3513,-0.3492,-0.3492,-0.3529,0,0,0,-0.3374,-0.3347,-0.3394,-0.3373,-0.3421,-0.3462,-0.3464,-0.3485,-0.3488,-0.3491,-0.3513,-0.3512,-0.3492,-0.3492,-0.3528,-0.3528,0,0,0,-0.3347,-0.3343,-0.3361,-0.3371,-0.3428,-0.3464,-0.3484,-0.3487,-0.3509,-0.3514,-0.3512,-0.3492,-0.3492,-0.3527,-0.3526,-0.3504,0,0,0,-0.3302,-0.3316,-0.336,-0.3387,-0.3427,-0.3485,-0.3485,-0.3516,-0.3522,-0.3513,-0.3492,-0.3492,-0.3527,-0.3526,-0.3504,-0.3247,-0.3227,0,0,-0.3293,-0.3314,-0.3333,-0.3376,-0.3428,-0.3469,-0.3508,-0.3517,-0.3505,-0.3478,-0.3479,-0.3528,-0.3526,-0.3504,-0.325,-0.323,0,0,0,-0.3314,-0.332,-0.3345,-0.339,-0.3448,-0.3496,-0.3522,-0.353,-0.3534,-0.3514,-0.3519,-0.3516,-0.3501,-0.3345,-0.333,-0.3492,-0.3492,-0.3492,-0.3492,-0.3213,-0.328,-0.3305,-0.3385,-0.343,-0.3506,-0.3536,-0.3545,-0.3538,-0.3546,-0.354,-0.3538,-0.3373,-0.3358,-0.3541,-0.3541,-0.3541,-0.3541,-0.3541,-0.3168,-0.3168,-0.3271,-0.3318,-0.3401,-0.344,-0.3529,-0.3552,-0.3564,-0.3564,-0.3548,-0.3384,-0.3342,-0.3544,-0.3544,-0.3543,-0.3543,-0.3543,-0.3543,-0.3063,-0.3073,-0.3132,-0.3211,-0.3287,-0.3396,-0.3437,-0.3527,-0.3565,-0.3578,-0.337,-0.3365,-0.3545,-0.3561,-0.3561,-0.356,-0.356,-0.356,-0.356,-0.2907,-0.2975,-0.2978,-0.3098,-0.3132,-0.3227,-0.3378,-0.3395,-0.3377,-0.3366,-0.3364,-0.3543,-0.3543,-0.3544,-0.3559,-0.3559,-0.3559,-0.3559,-0.356,-0.2723,-0.2779,-0.2771,-0.2802,-0.2905,-0.2887,-0.3103,-0.3076,-0.313,-0.3051,-0.3229,-0.3238,-0.319,-0.3198,-0.3189,-0.3112,-0.3112,-0.3112,-0.3112,-0.2562,-0.261,-0.2549,-0.2556,-0.2601,-0.2709,-0.2561,-0.2576,-0.2706,-0.2723,-0.274,-0.2679,-0.2705,-0.2628,-0.265,-0.263,-0.2408,-0.2407,-0.2406,-0.2401,-0.2432,-0.2322,-0.2394,-0.2441,-0.2445,-0.2207,-0.2032,-0.2116,-0.2386,-0.2694,-0.305,-0.3006,-0.3028,-0.2948,-0.2969,-0.2952,0,0]},{"header":{"parameterUnit":"m.s-1","parameterCategory":2,"la1":30.2992,"la2":30.254,"lo1":-89.0895,"lo2":-89.0443,"dy":0.0025,"dx":0.0025,"nx":19,"ny":19,"refTime":"2026-05-19T09:00:00:Z","depth":"2","parameterNumber":3,"parameterNumberName":"V-component_of_CURRENTS"},"data":[0,0,0,-0.0474,-0.0472,-0.0327,-0.0326,-0.0065,-0.0062,0,0,0,0,0,0,0,0,0,0,0,-0.053,-0.0529,-0.0474,-0.0472,-0.0327,-0.0326,-0.0065,-0.0062,0,0,0,0,0,0,0,0,0,0,0,-0.053,-0.0529,-0.0529,-0.0471,-0.0327,-0.0326,-0.0066,-0.0187,0,0,0,0,0,0,0,0,0,0,-0.0335,-0.0414,-0.053,-0.0529,-0.0471,-0.0327,-0.0326,-0.0193,-0.0179,-0.0118,0,-0.0119,0,-0.0092,-0.0046,-0.0045,0,0,0,-0.0444,-0.0426,-0.0384,-0.0529,-0.047,-0.0327,-0.0384,-0.0186,-0.017,-0.0099,-0.0115,-0.0105,-0.0088,-0.0044,-0.0043,0.0126,0.0126,0,0,-0.0452,-0.0494,-0.0396,-0.0375,-0.046,-0.0389,-0.038,-0.0177,-0.0172,-0.0114,-0.0099,-0.0083,-0.0043,-0.0041,0.0126,0.0126,0,0,0,-0.0494,-0.05,-0.0464,-0.0386,-0.0369,-0.0386,-0.0375,-0.0181,-0.0169,-0.0096,-0.008,-0.0041,-0.0038,0.0126,0.0126,-0.0019,0,0,0,-0.0497,-0.0526,-0.0469,-0.0491,-0.0375,-0.0286,-0.0384,-0.0183,-0.016,-0.0082,-0.0041,-0.0036,0.0126,0.0126,-0.0015,-0.0075,0,0,0,-0.0531,-0.0529,-0.0522,-0.0494,-0.0442,-0.0289,-0.0264,-0.0178,-0.015,-0.0045,-0.0035,0.0126,0.0126,-0.0011,-0.0069,-0.0016,0,0,0,-0.0565,-0.0591,-0.0523,-0.054,-0.0444,-0.0378,-0.0265,-0.0192,-0.0115,-0.004,0.0126,0.0126,-0.001,-0.0064,-0.0014,0.0072,0.0068,0,0,-0.0622,-0.0599,-0.0608,-0.0544,-0.0527,-0.0394,-0.0346,-0.0197,-0.0087,0.007,0.0074,-0.0016,-0.0068,-0.0016,0.0072,0.0067,0,0,0,-0.0641,-0.0654,-0.0634,-0.0606,-0.0525,-0.0446,-0.0297,-0.0215,-0.0083,-0.0045,0.0025,-0.0002,0.0035,0.0093,0.009,0.0126,0.0126,0.0126,0.0126,-0.0769,-0.0721,-0.0738,-0.0671,-0.0618,-0.0466,-0.0386,-0.0237,-0.0134,-0.0098,-0.0091,-0.0112,-0.0054,-0.0055,-0.0056,-0.0057,-0.0057,-0.0057,-0.0058,-0.0874,-0.0889,-0.0821,-0.0823,-0.0717,-0.0654,-0.0454,-0.0367,-0.0217,-0.0162,-0.0117,-0.0028,-0.0067,-0.0068,-0.0066,-0.0065,-0.0064,-0.0063,-0.0062,-0.0967,-0.097,-0.0962,-0.0954,-0.0909,-0.0772,-0.0684,-0.0531,-0.0343,-0.0317,-0.0145,-0.014,-0.0179,-0.027,-0.027,-0.027,-0.027,-0.027,-0.027,-0.1068,-0.1057,-0.1104,-0.1085,-0.1082,-0.1019,-0.0816,-0.0683,-0.0427,-0.0271,-0.0268,-0.0181,-0.0174,-0.0186,-0.0272,-0.0271,-0.0271,-0.0271,-0.0271,-0.1172,-0.1172,-0.1244,-0.1265,-0.1252,-0.1198,-0.1009,-0.0664,-0.0486,-0.0323,-0.0192,-0.0194,-0.0113,-0.0108,-0.0114,-0.0176,-0.0176,-0.0176,-0.0175,-0.1247,-0.1252,-0.1348,-0.1394,-0.1402,-0.1276,-0.1042,-0.066,-0.03,-0.0127,-0.013,-0.0102,-0.0106,-0.0022,-0.0019,-0.0021,-0.006,-0.006,-0.006,-0.1309,-0.1333,-0.1409,-0.1448,-0.1463,-0.1331,-0.1067,-0.0578,-0.0112,-0.006,-0.0162,-0.0158,-0.012,-0.0125,0.0005,0.0009,0.0006,0,0]}],[{"header":{"parameterUnit":"m.s-1","parameterCategory":2,"la1":30.2992,"la2":30.254,"lo1":-89.0895,"lo2":-89.0443,"dy":0.0025,"dx":0.0025,"nx":19,"ny":19,"refTime":"2026-05-19T09:00:00:Z","depth":"4","parameterNumber":2,"parameterNumberName":"U-component_of_CURRENTS"},"data":[0,0,0,-0.2391,-0.2395,-0.2587,-0.2587,-0.2721,-0.2722,0,0,0,0,0,0,0,0,0,0,0,-0.2327,-0.2329,-0.239,-0.2395,-0.2587,-0.2587,-0.2721,-0.2722,0,0,0,0,0,0,0,0,0,0,0,-0.2327,-0.2329,-0.2331,-0.2396,-0.2586,-0.2587,-0.2721,-0.2603,0,0,0,0,0,0,0,0,0,0,-0.243,-0.2395,-0.2328,-0.2331,-0.2397,-0.2586,-0.2588,-0.2598,-0.261,-0.2605,0,-0.265,0,-0.2689,-0.2729,-0.273,0,0,0,-0.239,-0.2386,-0.2433,-0.2331,-0.2399,-0.2586,-0.2499,-0.2606,-0.2619,-0.262,-0.2652,-0.2658,-0.2692,-0.273,-0.2731,-0.2851,-0.2851,0,0,-0.2379,-0.2362,-0.2424,-0.2442,-0.2468,-0.2493,-0.2505,-0.2615,-0.2636,-0.2653,-0.2662,-0.2694,-0.2731,-0.2731,-0.285,-0.2851,0,0,0,-0.2353,-0.2354,-0.2402,-0.2435,-0.248,-0.2498,-0.2512,-0.2632,-0.2647,-0.2664,-0.2695,-0.2731,-0.2733,-0.285,-0.285,-0.2886,0,0,0,-0.2346,-0.2339,-0.2397,-0.2388,-0.2479,-0.2575,-0.2526,-0.264,-0.2654,-0.2695,-0.2731,-0.2734,-0.2849,-0.285,-0.2884,-0.2873,0,0,0,-0.2315,-0.2336,-0.2363,-0.2387,-0.2472,-0.2575,-0.2597,-0.2644,-0.2672,-0.273,-0.2734,-0.2849,-0.285,-0.2882,-0.287,-0.2841,0,0,0,-0.2282,-0.2327,-0.2363,-0.2435,-0.247,-0.2589,-0.2597,-0.2704,-0.2761,-0.2732,-0.2849,-0.285,-0.2881,-0.2869,-0.2841,-0.2482,0,0,0,-0.2309,-0.233,-0.2372,-0.2409,-0.251,-0.2561,-0.2668,-0.2752,-0.277,-0.2802,-0.2807,-0.2885,-0.287,-0.2841,-0.2562,0,0,0,0,-0.2361,-0.2385,-0.2427,-0.2502,-0.2593,-0.267,-0.276,-0.279,-0.2861,-0.2812,-0.2901,-0.289,-0.287,-0.2661,-0.2857,-0.2856,-0.2856,-0.2856,-0.2856,-0.2326,-0.2391,-0.2458,-0.2548,-0.2633,-0.2758,-0.2816,-0.2868,-0.2898,-0.2938,-0.2933,-0.2951,-0.2735,-0.2962,-0.2962,-0.2962,-0.2962,-0.2962,-0.2962,-0.2319,-0.2336,-0.2455,-0.2544,-0.2651,-0.275,-0.2864,-0.2908,-0.2957,-0.2978,-0.2957,-0.2731,-0.2966,-0.2965,-0.2965,-0.2964,-0.2964,-0.2964,-0.2964,-0.2239,-0.2253,-0.2349,-0.2475,-0.2599,-0.2739,-0.2785,-0.2904,-0.2962,-0.2977,-0.2723,-0.2953,-0.2931,-0.297,-0.297,-0.297,-0.2969,-0.2969,-0.2969,-0.209,-0.2185,-0.2236,-0.2399,-0.2467,-0.2582,-0.2747,-0.2754,-0.2854,-0.2701,-0.2978,-0.2952,-0.2952,-0.2931,-0.2967,-0.2967,-0.2968,-0.2968,-0.2968,-0.1939,-0.2011,-0.2054,-0.2125,-0.2266,-0.2321,-0.2539,-0.249,-0.2461,-0.2368,-0.2534,-0.2556,-0.2493,-0.2503,-0.2464,-0.2363,-0.2359,-0.2354,0,-0.1802,-0.1855,-0.187,-0.1912,-0.1939,-0.2136,-0.2017,-0.2081,-0.2162,-0.2101,-0.2452,-0.2642,-0.2655,-0.2589,-0.2591,-0.2546,0,0,0,-0.168,-0.1714,-0.1664,-0.1759,-0.177,-0.1807,-0.1966,-0.1887,-0.219,-0.2038,-0.224,-0.227,-0.2678,-0.2961,-0.2915,-0.2915,-0.2878,0,0]},{"header":{"parameterUnit":"m.s-1","parameterCategory":2,"la1":30.2992,"la2":30.254,"lo1":-89.0895,"lo2":-89.0443,"dy":0.0025,"dx":0.0025,"nx":19,"ny":19,"refTime":"2026-05-19T09:00:00:Z","depth":"4","parameterNumber":3,"parameterNumberName":"V-component_of_CURRENTS"},"data":[0,0,0,-0.035,-0.0349,-0.026,-0.026,-0.005,-0.0048,0,0,0,0,0,0,0,0,0,0,0,-0.0385,-0.0385,-0.0351,-0.0349,-0.0261,-0.026,-0.005,-0.0048,0,0,0,0,0,0,0,0,0,0,0,-0.0385,-0.0385,-0.0385,-0.0349,-0.0261,-0.026,-0.005,-0.0136,0,0,0,0,0,0,0,0,0,0,-0.0232,-0.0293,-0.0385,-0.0385,-0.0349,-0.0261,-0.026,-0.0141,-0.013,-0.007,0,-0.0077,0,-0.0064,-0.0034,-0.0033,0,0,0,-0.0325,-0.0302,-0.0275,-0.0385,-0.0348,-0.0261,-0.0294,-0.0135,-0.0124,-0.0056,-0.0074,-0.0067,-0.006,-0.0032,-0.0031,0.013,0.013,0,0,-0.033,-0.0361,-0.0284,-0.0268,-0.035,-0.0297,-0.0291,-0.0129,-0.0127,-0.0074,-0.0062,-0.0057,-0.0031,-0.0029,0.013,0.013,0,0,0,-0.036,-0.0365,-0.0343,-0.0277,-0.0271,-0.0295,-0.0288,-0.0134,-0.0127,-0.006,-0.0054,-0.003,-0.0027,0.013,0.013,0.0004,0,0,0,-0.0362,-0.0384,-0.0346,-0.0362,-0.0276,-0.0217,-0.0297,-0.0138,-0.012,-0.0055,-0.003,-0.0025,0.0129,0.013,0.0007,-0.0053,0,0,0,-0.0385,-0.0386,-0.0383,-0.0364,-0.0336,-0.022,-0.0203,-0.0134,-0.0116,-0.0033,-0.0025,0.0129,0.013,0.0009,-0.0048,-0.0033,0,0,0,-0.0406,-0.0426,-0.0385,-0.0399,-0.0337,-0.0287,-0.0204,-0.0147,-0.0085,-0.0029,0.0129,0.013,0.001,-0.0044,-0.003,-0.0051,0,0,0,-0.0444,-0.0432,-0.0438,-0.0399,-0.0387,-0.0296,-0.0258,-0.0144,-0.0051,0.0087,0.009,0.0006,-0.0047,-0.0032,-0.0022,0,0,0,0,-0.0457,-0.0468,-0.0455,-0.044,-0.0382,-0.0332,-0.0217,-0.0152,-0.0043,-0.0016,0.0051,0.0023,0.0035,0.0034,0.0132,0.0132,0.0132,0.0132,0.0132,-0.0547,-0.0514,-0.0529,-0.0484,-0.0447,-0.034,-0.0285,-0.0167,-0.0076,-0.0044,-0.0048,-0.0079,-0.0084,-0.0004,-0.0004,-0.0005,-0.0005,-0.0006,-0.0006,-0.0619,-0.0631,-0.0591,-0.0599,-0.0532,-0.049,-0.0339,-0.0272,-0.0161,-0.01,-0.0081,-0.006,-0.0017,-0.0015,-0.0013,-0.0012,-0.0011,-0.001,-0.001,-0.0682,-0.0685,-0.0694,-0.0705,-0.069,-0.0596,-0.0547,-0.0425,-0.0276,-0.0264,-0.0197,-0.0134,-0.0158,-0.0239,-0.0239,-0.0239,-0.0239,-0.024,-0.024,-0.0746,-0.075,-0.0805,-0.0813,-0.0832,-0.0806,-0.0669,-0.0578,-0.0422,-0.0327,-0.0287,-0.0155,-0.0148,-0.0167,-0.0243,-0.0242,-0.0242,-0.0242,-0.0242,-0.081,-0.0829,-0.091,-0.0951,-0.0983,-0.0951,-0.0842,-0.0629,-0.0534,-0.0419,-0.0325,-0.032,-0.0263,-0.0252,-0.0273,-0.0383,-0.0384,-0.0384,0,-0.0862,-0.0873,-0.0994,-0.1066,-0.1093,-0.1025,-0.0894,-0.0754,-0.0548,-0.055,-0.0538,-0.0443,-0.0435,-0.038,-0.037,-0.0402,0,0,0,-0.0907,-0.094,-0.1033,-0.1104,-0.1135,-0.0961,-0.0851,-0.0772,-0.059,-0.0472,-0.0398,-0.0395,-0.0352,-0.0253,-0.0151,-0.0142,-0.0167,0,0]}]]